Location: Dover
(48.8500°N, 53.9833°W)
Time: 07:10:46
(UTC+00:00)

Resurs 01 Rocket - Pass Details

Date: 14 November 2025
Orbit: 626 x 637 km, 97.7° (Epoch: 13 December)

Event Time Altitude Azimuth Distance (km) Brightness Sun altitude
Exits shadow 20:57:28 11° 49° (NE) 1,960 3.6 -10.1°
Drops below altitude 10° 20:58:22 10° 38° (NE) 2,036 3.7 -10.3°
Sets 21:02:08 0° 4° (N) 2,950 4.8 -10.9°
